| time (UTC) | temp F | wind direction | speed MPH | gust MPH | rain 1hr in | rain 24hr in | rain mn in | humidity % | barometer mb |
| 20260505214555 | 67 | 199 | 2.0 | 5.0 | 0.00 | 0.25 | 0.05 | 43 | 1009.7 |
| 20260505213045 | 66 | 80 | 3.0 | 9.0 | 0.00 | 0.25 | 0.05 | 45 | 1009.9 |
| 20260505211549 | 65 | 167 | 5.0 | 9.0 | 0.00 | 0.25 | 0.05 | 47 | 1010.0 |
| 20260505210040 | 64 | 359 | 3.0 | 7.0 | 0.00 | 0.26 | 0.05 | 50 | 1010.3 |
| 20260505204539 | 63 | 174 | 4.0 | 9.0 | 0.00 | 0.26 | 0.05 | 56 | 1010.5 |
| 20260505203049 | 62 | 231 | 3.0 | 8.0 | 0.00 | 0.26 | 0.05 | 55 | 1010.6 |
| 20260505201534 | 61 | 153 | 3.0 | 8.0 | 0.00 | 0.26 | 0.05 | 60 | 1010.6 |
| 20260505200030 | 60 | 206 | 4.0 | 8.0 | 0.00 | 0.27 | 0.05 | 59 | 1010.8 |
| 20260505194527 | 59 | 359 | 3.0 | 6.0 | 0.00 | 0.27 | 0.05 | 64 | 1010.9 |
| 20260505193025 | 58 | 359 | 1.0 | 10.0 | 0.00 | 0.27 | 0.05 | 64 | 1010.9 |
| 20260505191524 | 58 | 359 | 3.0 | 11.0 | 0.00 | 0.27 | 0.05 | 64 | 1010.9 |
| 20260505190029 | 58 | 359 | 2.0 | 8.0 | 0.00 | 0.28 | 0.05 | 64 | 1010.8 |
| 20260505184529 | 58 | 359 | 2.0 | 10.0 | 0.00 | 0.28 | 0.05 | 65 | 1010.9 |
| 20260505183025 | 56 | 359 | 2.0 | 6.0 | 0.00 | 0.28 | 0.05 | 67 | 1010.9 |
| 20260505181515 | 55 | 359 | 2.0 | 8.0 | 0.00 | 0.28 | 0.05 | 69 | 1010.8 |
| 20260505180011 | 54 | 359 | 3.0 | 6.0 | 0.00 | 0.28 | 0.05 | 72 | 1010.8 |
| 20260505174509 | 53 | 359 | 4.0 | 6.0 | 0.00 | 0.28 | 0.05 | 70 | 1010.8 |
| 20260505173005 | 53 | 359 | 5.0 | 10.0 | 0.00 | 0.28 | 0.05 | 72 | 1010.5 |
| 20260505171506 | 53 | 359 | 4.0 | 10.0 | 0.00 | 0.28 | 0.05 | 72 | 1010.3 |
| 20260505170000 | 53 | 359 | 5.0 | 12.0 | 0.00 | 0.28 | 0.05 | 73 | 1010.1 |
| 20260505164603 | 53 | 359 | 8.0 | 12.0 | 0.00 | 0.28 | 0.05 | 74 | 1010.0 |
| 20260505163059 | 53 | 359 | 6.0 | 12.0 | 0.00 | 0.28 | 0.05 | 74 | 1009.9 |
| 20260505161558 | 53 | 359 | 4.0 | 8.0 | 0.00 | 0.28 | 0.05 | 74 | 1009.7 |
| 20260505153054 | 52 | 359 | 1.0 | 4.0 | 0.00 | 0.28 | 0.05 | 77 | 1009.4 |
| 20260505151551 | 52 | 359 | 1.0 | 3.0 | 0.00 | 0.28 | 0.05 | 78 | 1009.2 |
| 20260505124534 | 49 | 144 | 3.0 | 7.0 | 0.00 | 0.28 | 0.05 | 79 | 1007.3 |
| 20260505123033 | 48 | 247 | 2.0 | 5.0 | 0.00 | 0.28 | 0.05 | 81 | 1007.1 |
| 20260505121537 | 49 | 359 | 2.0 | 6.0 | 0.00 | 0.28 | 0.05 | 81 | 1007.0 |
| 20260505120031 | 48 | 203 | 4.0 | 11.0 | 0.00 | 0.28 | 0.05 | 81 | 1006.9 |
| 20260505114530 | 48 | 202 | 2.0 | 6.0 | 0.00 | 0.28 | 0.05 | 82 | 1007.0 |
| 20260505113039 | 48 | 242 | 3.0 | 7.0 | 0.00 | 0.28 | 0.05 | 81 | 1006.9 |
| 20260505111540 | 48 | 359 | 4.0 | 11.0 | 0.00 | 0.28 | 0.05 | 82 | 1006.9 |
| 20260505101533 | 48 | 197 | 1.0 | 5.0 | 0.00 | 0.28 | 0.05 | 83 | 1006.9 |
| 20260505100026 | 48 | 241 | 4.0 | 6.0 | 0.00 | 0.28 | 0.05 | 84 | 1007.1 |
| 20260505094527 | 48 | 229 | 5.0 | 8.0 | 0.00 | 0.28 | 0.05 | 84 | 1006.9 |
| 20260505093030 | 48 | 249 | 3.0 | 6.0 | 0.01 | 0.28 | 0.05 | 84 | 1007.2 |
| 20260505091523 | 48 | 214 | 3.0 | 6.0 | 0.01 | 0.28 | 0.05 | 84 | 1007.7 |
| 20260505090029 | 48 | 212 | 5.0 | 11.0 | 0.02 | 0.28 | 0.05 | 84 | 1007.8 |
| 20260505084528 | 48 | 253 | 5.0 | 11.0 | 0.04 | 0.28 | 0.05 | 84 | 1007.3 |
| 20260505083022 | 48 | 212 | 3.0 | 9.0 | 0.03 | 0.28 | 0.04 | 83 | 1007.6 |
| 20260505081522 | 48 | 359 | 4.0 | 11.0 | 0.03 | 0.28 | 0.04 | 83 | 1007.7 |
| 20260505080027 | 48 | 210 | 5.0 | 14.0 | 0.02 | 0.26 | 0.02 | 83 | 1007.9 |
| 20260505074518 | 48 | 359 | 8.0 | 15.0 | 0.06 | 0.25 | 0.01 | 82 | 1007.6 |
| 20260505073019 | 48 | 201 | 8.0 | 13.0 | 0.08 | 0.25 | 0.01 | 83 | 1007.5 |
| 20260505071513 | 48 | 359 | 7.0 | 15.0 | 0.09 | 0.25 | 0.01 | 81 | 1007.2 |
| 20260505070020 | 49 | 359 | 6.0 | 13.0 | 0.09 | 0.24 | 0.24 | 80 | 1007.3 |
| 20260505064512 | 49 | 359 | 7.0 | 13.0 | 0.03 | 0.18 | 0.18 | 77 | 1007.7 |
| 20260505063003 | 50 | 359 | 7.0 | 20.0 | 0.02 | 0.17 | 0.17 | 75 | 1007.0 |
| 20260505061502 | 51 | 359 | 7.0 | 13.0 | 0.01 | 0.16 | 0.16 | 73 | 1007.0 |
| 20260505054600 | 51 | 359 | 6.0 | 11.0 | 0.00 | 0.15 | 0.15 | 72 | 1006.7 |
| 20260505053059 | 51 | 359 | 10.0 | 15.0 | 0.00 | 0.15 | 0.15 | 72 | 1006.6 |
| 20260505051556 | 51 | 359 | 7.0 | 13.0 | 0.00 | 0.15 | 0.15 | 73 | 1006.8 |
| 20260505041557 | 51 | 359 | 6.0 | 13.0 | 0.00 | 0.15 | 0.15 | 70 | 1006.5 |
| 20260505040101 | 52 | 359 | 5.0 | 10.0 | 0.00 | 0.15 | 0.15 | 72 | 1006.5 |
| 20260505034554 | 51 | 359 | 5.0 | 12.0 | 0.00 | 0.15 | 0.15 | 73 | 1006.1 |
| 20260505033100 | 51 | 359 | 5.0 | 9.0 | 0.00 | 0.15 | 0.15 | 74 | 1005.7 |
| 20260505031555 | 52 | 359 | 7.0 | 13.0 | 0.00 | 0.15 | 0.15 | 73 | 1006.1 |
| 20260505030050 | 51 | 359 | 9.0 | 16.0 | 0.00 | 0.15 | 0.15 | 75 | 1006.1 |
| 20260505024550 | 51 | 359 | 9.0 | 15.0 | 0.00 | 0.15 | 0.15 | 76 | 1006.2 |
| 20260505023048 | 52 | 359 | 8.0 | 16.0 | 0.00 | 0.15 | 0.15 | 76 | 1006.0 |
| 20260505021547 | 52 | 359 | 9.0 | 20.0 | 0.00 | 0.15 | 0.15 | 76 | 1005.7 |
| 20260505020045 | 52 | 359 | 7.0 | 13.0 | 0.01 | 0.15 | 0.15 | 77 | 1005.5 |
| 20260505014545 | 52 | 359 | 6.0 | 15.0 | 0.02 | 0.15 | 0.15 | 76 | 1004.9 |
| 20260505013041 | 53 | 359 | 7.0 | 13.0 | 0.02 | 0.15 | 0.15 | 75 | 1004.9 |
| 20260505011544 | 53 | 359 | 7.0 | 11.0 | 0.02 | 0.15 | 0.15 | 75 | 1005.6 |
| 20260505010048 | 53 | 359 | 5.0 | 10.0 | 0.01 | 0.14 | 0.14 | 74 | 1006.4 |
| 20260505004538 | 53 | 359 | 6.0 | 9.0 | 0.00 | 0.13 | 0.13 | 76 | 1006.2 |
| 20260505003038 | 53 | 359 | 5.0 | 11.0 | 0.07 | 0.13 | 0.13 | 75 | 1006.1 |
| 20260505001537 | 53 | 359 | 4.0 | 12.0 | 0.09 | 0.13 | 0.13 | 75 | 1005.7 |
| 20260505000048 | 53 | 359 | 6.0 | 12.0 | 0.09 | 0.13 | 0.13 | 76 | 1005.4 |
| 20260504234536 | 54 | 359 | 5.0 | 13.0 | 0.08 | 0.12 | 0.12 | 74 | 1005.4 |
| 20260504233035 | 56 | 359 | 11.0 | 17.0 | 0.02 | 0.06 | 0.06 | 66 | 1005.0 |
| 20260504231534 | 57 | 359 | 10.0 | 17.0 | 0.00 | 0.04 | 0.04 | 61 | 1004.8 |
| 20260504230035 | 56 | 359 | 9.0 | 24.0 | 0.00 | 0.04 | 0.04 | 64 | 1004.4 |
| 20260504224536 | 57 | 359 | 10.0 | 19.0 | 0.00 | 0.04 | 0.04 | 64 | 1004.4 |
| 20260504223032 | 56 | 359 | 11.0 | 18.0 | 0.00 | 0.04 | 0.04 | 65 | 1004.7 |
| 20260504221531 | 56 | 359 | 12.0 | 20.0 | 0.00 | 0.04 | 0.04 | 66 | 1004.7 |
| 20260504220043 | 56 | 359 | 11.0 | 17.0 | 0.00 | 0.04 | 0.04 | 67 | 1004.7 |